TimeEST,TemperatureF,Dew PointF,Humidity,Sea Level PressureIn,VisibilityMPH,Wind Direction,Wind SpeedMPH,Gust SpeedMPH,PrecipitationIn,Events,Conditions,WindDirDegrees,DateUTC
12:53 AM,25.0,16.0,69,30.47,10.0,NW,6.9,-,N/A,,Clear,320,2013-01-18 05:53:00
1:53 AM,23.0,16.0,74,30.49,10.0,NNW,4.6,-,N/A,,Clear,330,2013-01-18 06:53:00
2:53 AM,19.0,14.0,81,30.50,10.0,Calm,Calm,-,N/A,,Clear,0,2013-01-18 07:53:00
3:53 AM,17.1,12.9,84,30.51,10.0,Calm,Calm,-,N/A,,Clear,0,2013-01-18 08:53:00
4:53 AM,16.0,12.9,88,30.52,10.0,Calm,Calm,-,N/A,,Clear,0,2013-01-18 09:53:00
5:53 AM,15.1,12.0,88,30.52,10.0,Calm,Calm,-,N/A,,Clear,0,2013-01-18 10:53:00
6:53 AM,15.1,12.0,88,30.54,10.0,Calm,Calm,-,N/A,,Clear,0,2013-01-18 11:53:00
7:53 AM,16.0,12.0,84,30.55,10.0,Calm,Calm,-,N/A,,Clear,0,2013-01-18 12:53:00
8:53 AM,21.0,18.0,88,30.54,10.0,ESE,3.5,-,N/A,,Clear,110,2013-01-18 13:53:00
9:53 AM,28.0,19.0,69,30.56,10.0,South,3.5,-,N/A,,Clear,180,2013-01-18 14:53:00
10:53 AM,32.0,14.0,48,30.56,10.0,South,4.6,-,N/A,,Clear,170,2013-01-18 15:53:00
11:53 AM,34.0,14.0,44,30.54,10.0,Variable,3.5,-,N/A,,Clear,0,2013-01-18 16:53:00
12:53 PM,37.9,14.0,38,30.48,10.0,Variable,5.8,-,N/A,,Clear,0,2013-01-18 17:53:00
1:53 PM,39.0,16.0,39,30.45,10.0,South,8.1,16.1,N/A,,Clear,170,2013-01-18 18:53:00
2:53 PM,41.0,15.1,35,30.44,10.0,SSW,9.2,-,N/A,,Clear,200,2013-01-18 19:53:00
3:53 PM,41.0,16.0,36,30.41,10.0,SSW,9.2,17.3,N/A,,Clear,200,2013-01-18 20:53:00
4:53 PM,39.9,16.0,38,30.39,10.0,South,11.5,19.6,N/A,,Clear,190,2013-01-18 21:53:00
5:53 PM,39.0,18.0,43,30.37,10.0,SSW,8.1,-,N/A,,Clear,200,2013-01-18 22:53:00
6:53 PM,37.0,19.9,50,30.37,10.0,Variable,5.8,-,N/A,,Clear,0,2013-01-18 23:53:00
7:53 PM,36.0,21.0,55,30.36,10.0,Variable,3.5,-,N/A,,Clear,0,2013-01-19 00:53:00
8:53 PM,37.0,21.9,54,30.33,10.0,South,6.9,-,N/A,,Clear,190,2013-01-19 01:53:00
9:53 PM,37.0,21.9,54,30.30,10.0,South,8.1,-,N/A,,Clear,190,2013-01-19 02:53:00
10:53 PM,37.0,23.0,57,30.28,10.0,SSW,8.1,-,N/A,,Clear,200,2013-01-19 03:53:00
11:53 PM,37.0,23.0,57,30.26,10.0,SSW,8.1,-,N/A,,Clear,200,2013-01-19 04:53:00